RH
30 32 29 32 32 35 38 37 38 39 38 38 33 32 32 30 30 31 31 31 31 31 30 29 30 27 23 21 20 21 25 40 49 54 56 52 44 42 43 41 40 36 38 45
31 35 31 31 34 37 38 39 41 40 39 36 34 31 33 34 32 32 31 31 31 32 32 33 33 31 27 23 23 23 22 38 54 59 63 64 54 48 45 49 47 43 39 37
33 38 34 33 35 36 39 43 45 44 41 34 34 31 30 36 39 34 34 31 32 36 36 37 36 32 31 28 28 28 26 29 51 61 63 66 73 63 56 53 47 46 46 49
35 40 37 35 41 37 40 45 42 45 47 44 45 44 30 40 41 38 37 37 34 39 41 41 40 36 35 35 35 33 28 27 30 43 70 72 94 99 100 95 100 90 73 61
36 42 39 37 42 41 42 42 41 47 51 55 48 46 37 36 41 38 38 39 38 41 44 46 43 41 40 41 40 40 36 31 30 31 38 54 76 77 98 99 95 98 87 77
36 40 44 45 45 42 45 41 47 51 55 73 51 44 39 38 41 39 41 43 44 44 46 49 50 52 53 48 45 44 44 44 38 37 34 40 50 93 99 100 100 99 100 100
35 33 41 45 43 41 47 42 46 62 76 70 49 46 35 36 41 41 41 44 48 50 54 54 54 54 56 57 51 49 49 52 57 57 55 45 42 47 69 94 97 98 99 100
44 37 42 44 45 49 50 49 49 61 70 58 49 50 34 40 42 42 44 45 49 51 56 57 56 55 57 60 60 53 53 58 66 77 82 80 65 47 48 50 84 87 79 81
49 47 49 48 51 53 51 49 54 51 54 64 51 43 42 44 46 50 52 56 55 55 59 61 64 60 59 62 66 62 56 61 74 81 85 90 84 58 53 56 58 59 68 90
61 62 50 54 57 54 57 60 52 56 70 74 55 46 42 43 46 48 55 59 63 64 62 66 70 66 63 63 68 70 64 61 74 90 94 95 98 79 60 59 61 66 68 71
67 72 60 62 65 68 68 69 56 54 56 71 80 53 44 47 54 54 59 63 65 66 66 72 73 72 67 66 68 72 73 68 75 94 96 96 96 96 89 80 84 94 83 73
73 80 84 72 70 72 74 60 64 58 67 59 63 63 50 47 52 54 63 69 69 74 80 83 81 73 72 69 69 74 77 81 88 95 96 96 95 96 97 97 97 96 96 96
82 88 92 72 68 70 80 88 91 90 80 77 75 63 48 48 54 63 74 77 72 81 86 83 82 79 80 82 88 88 93 96 95 96 97 96 95 95 96 96 96 96 96 96
89 96 97 92 90 92 94 97 97 97 96 91 82 66 56 54 72 80 74 70 72 75 76 69 66 72 72 76 90 100 98 97 97 97 96 96 95 95 96 96 96 96 96 96
98 96 97 92 93 92 91 92 84 96 86 99 63 88 52 70 83 73 73 76 77 80 78 70 73 78 70 67 84 96 99 97 98 97 96 96 96 96 96 96 96 95 95 95
99 97 98 97 82 87 89 80 64 73 76 83 57 55 69 65 74 80 81 85 92 87 71 64 67 75 79 68 79 92 98 97 97 98 98 96 96 96 96 95 95 95 95 94
100 100 98 96 86 90 87 50 51 56 65 62 64 67 72 72 77 79 80 89 88 83 76 73 68 68 79 83 84 99 99 97 98 96 96 97 97 96 96 96 96 96 95 94
99 100 100 96 90 98 56 56 57 61 67 64 64 67 68 73 75 87 98 94 74 69 70 67 81 88 88 99 99 99 98 97 96 96 96 96 96 96 96 96 95 96 95 89
92 100 100 98 89 83 76 59 60 69 68 67 66 69 85 92 92 92 74 68 69 65 63 76 87 96 99 99 97 97 96 97 97 97 96 96 96 96 96 96 95 93 70 38
77 100 100 100 97 93 66 66 67 70 78 70 75 83 97 92 80 74 69 71 70 71 77 84 89 96 100 99 97 96 96 97 96 96 96 96 96 96 96 95 90 54 22 18
78 94 99 100 98 82 74 69 70 86 73 97 97 97 92 74 76 77 77 71 68 75 78 85 94 99 100 99 97 96 96 96 96 97 97 96 97 96 89 51 24 20 18 16
82 88 97 97 97 91 70 74 87 94 96 96 96 95 84 74 75 78 68 66 69 72 77 86 93 97 99 96 96 96 96 97 97 97 97 96 83 43 24 20 17 15 13 12
98 91 92 93 81 86 84 95 98 98 97 94 95 82 75 78 73 64 62 64 69 77 86 91 95 96 98 95 96 97 96 97 97 96 82 35 24 20 17 14 14 16 20 22
97 98 97 98 97 97 100 95 87 87 93 97 96 84 81 68 54 48 55 69 78 86 92 95 96 97 97 97 96 97 97 95 74 33 23 18 16 16 20 24 24 24 24 25
98 98 97 92 87 98 83 94 89 96 96 97 91 86 64 50 52 60 72 81 86 93 97 100 98 98 97 96 96 93 55 28 21 18 17 20 24 26 26 27 28 29 30 28
98 95 98 88 94 99 94 97 93 95 97 94 85 64 54 53 60 76 83 87 91 96 99 100 98 99 98 84 42 26 21 19 20 25 26 26 28 29 29 29 32 33 34 36
Wind_Speed
11 14 15 16 13 13 15 15 15 19 17 25 19 13 7 8 9 11 13 14 14 13 13 16 17 18 20 21 20 21 21 18 17 13 13 12 13 17 22 26 28 31 30 27
9 15 13 11 11 14 15 15 17 14 21 16 13 10 5 9 14 16 15 13 11 11 13 16 17 18 18 19 20 20 22 19 14 12 11 12 15 18 20 23 26 28 29 31
9 14 11 10 12 14 16 19 23 24 22 10 16 7 7 8 11 16 16 14 13 13 14 16 18 19 21 20 20 20 19 19 18 15 12 11 14 19 23 25 26 27 29 29
8 13 10 8 15 16 14 22 20 20 17 8 9 7 6 7 10 15 17 15 15 15 16 17 18 19 21 23 23 20 18 18 16 16 16 15 13 18 16 19 20 21 27 29
12 11 11 11 14 16 13 19 18 13 11 13 4 5 5 9 8 15 17 15 14 16 18 19 19 21 22 22 23 24 21 17 17 17 17 17 16 13 12 18 20 21 25 25
12 11 10 15 13 16 23 20 8 6 6 3 1 3 9 6 10 14 17 19 16 17 19 21 22 23 25 24 23 23 24 21 19 19 19 18 17 15 11 12 16 17 18 21
12 12 11 11 19 13 22 16 6 4 2 4 4 12 6 10 11 15 18 23 20 18 26 24 24 24 25 25 24 22 21 21 21 20 21 21 18 16 15 12 11 14 15 16
13 8 15 19 18 19 12 10 4 4 3 6 17 7 3 15 14 13 18 22 23 20 30 27 25 25 24 24 24 23 22 21 21 21 23 25 24 18 15 14 13 11 13 17
9 9 18 12 19 21 8 3 9 6 10 4 6 7 16 10 8 12 19 26 20 23 28 27 27 26 25 25 24 24 24 23 22 23 30 30 25 20 17 14 13 13 14 15
11 12 10 16 20 11 9 10 4 3 4 5 7 13 7 10 24 10 23 26 21 27 30 29 27 27 26 25 25 26 26 26 26 28 30 29 28 23 21 19 18 16 15 14
17 7 17 21 15 17 16 15 3 5 7 3 4 7 10 27 19 15 30 27 33 26 25 28 30 28 26 26 25 26 28 30 31 33 32 29 28 28 26 25 27 27 24 22
10 13 15 27 19 14 12 6 6 5 5 8 8 21 13 6 14 24 40 35 27 25 26 29 32 32 27 26 27 26 29 32 36 39 35 30 29 28 29 30 30 28 28 26
20 10 13 13 5 2 11 17 21 19 20 24 10 13 11 25 33 41 35 38 27 30 32 35 36 35 32 30 29 31 31 34 39 41 34 31 30 29 28 27 26 25 23 21
24 19 15 17 23 27 33 32 31 29 22 26 33 43 38 31 34 34 33 32 27 27 30 39 40 36 35 36 36 35 36 36 37 37 34 31 30 29 28 26 24 23 22 21
22 27 27 30 25 26 33 37 29 30 34 31 48 38 35 34 33 30 25 27 33 33 41 39 35 34 36 36 36 35 35 35 33 33 32 29 27 27 26 25 25 23 22 22
25 24 28 35 33 24 30 37 34 28 25 29 24 29 24 24 25 25 31 33 35 38 38 36 35 36 36 37 36 33 33 33 31 29 26 26 25 24 24 24 24 24 25 25
29 28 25 26 26 28 31 11 10 15 19 18 18 20 27 30 32 36 36 31 44 40 38 39 40 38 36 36 36 33 33 32 29 27 24 24 25 24 23 24 24 24 24 26
34 32 29 24 27 6 9 9 19 28 27 17 22 27 30 31 35 35 34 43 43 41 40 38 36 37 35 34 34 34 34 31 26 23 22 23 23 23 24 24 25 26 26 26
27 29 23 11 19 31 33 18 16 12 23 26 32 29 18 31 37 36 39 41 41 41 40 36 34 33 33 33 34 34 30 24 21 21 22 22 23 23 24 25 26 25 26 26
20 29 30 18 8 6 9 15 26 32 31 28 21 22 34 32 41 43 44 39 35 36 35 34 34 33 32 31 30 27 23 21 20 20 20 21 22 24 25 26 25 26 26 26
18 27 33 33 20 22 24 25 27 16 22 21 27 35 42 41 40 40 39 38 37 35 34 32 30 28 27 26 24 21 20 19 19 20 21 23 25 25 25 24 25 26 27 28
19 15 16 17 14 17 22 20 21 29 36 36 35 34 40 37 35 36 37 36 37 35 33 30 27 24 22 21 19 19 18 19 20 22 24 24 23 23 23 25 26 28 28 28
25 28 22 18 21 29 39 41 39 38 44 41 35 40 37 36 36 36 37 37 36 33 29 26 23 21 19 18 18 19 19 21 23 23 22 22 23 24 25 26 26 26 25 24
31 29 32 31 30 34 37 46 40 36 36 30 40 39 38 35 37 39 39 36 33 29 25 22 19 18 18 18 19 20 22 22 21 22 22 23 23 23 23 22 21 19 19 21
37 31 32 34 42 33 45 39 37 40 38 39 37 37 34 36 37 37 34 30 27 24 21 19 18 18 19 20 22 21 20 21 22 23 23 21 20 18 17 17 18 19 20 22
39 38 27 37 36 30 38 39 45 44 37 38 35 33 35 36 36 33 29 26 23 20 19 18 19 21 21 20 20 21 22 22 21 20 19 17 16 16 17 17 18 21 21 23
Wind_Direction
30 18 23 20 17 12 354 345 330 330 323 319 329 337 344 357 359 351 336 323 318 310 311 320 328 335 341 345 351 355 357 346 341 300 277 265 260 249 242 242 246 250 253 254
22 18 12 8 4 5 345 345 332 337 332 313 324 337 357 7 17 5 347 336 329 313 312 319 325 332 338 340 349 356 355 354 344 337 290 263 261 258 254 252 254 255 256 256
24 7 2 346 348 355 350 347 336 330 340 323 336 330 336 347 355 4 348 344 342 335 323 324 327 331 335 340 343 343 352 353 356 348 330 293 271 262 259 256 254 254 255 255
0 353 352 345 347 345 348 343 328 321 333 341 328 298 325 339 343 348 354 344 342 341 334 331 328 331 332 334 336 340 342 348 349 355 354 339 282 279 264 277 275 268 264 259
358 354 350 345 346 344 335 339 320 309 315 324 318 304 298 313 326 342 357 356 343 340 342 338 334 331 328 327 328 330 334 341 343 344 345 342 338 324 277 278 289 289 283 275
359 358 346 340 344 336 340 344 308 317 328 309 201 345 290 296 331 341 3 0 358 359 355 344 334 326 321 318 318 320 323 329 334 338 337 338 337 332 322 300 293 299 296 293
352 349 347 337 338 338 344 348 340 353 348 245 258 312 262 328 332 336 348 353 350 354 350 342 335 327 321 314 310 310 311 315 322 327 330 330 328 321 311 308 289 274 266 272
344 336 336 332 340 334 346 12 41 301 299 291 293 245 336 329 327 331 340 342 338 330 340 343 338 333 325 314 305 301 301 302 307 314 320 319 314 308 303 299 290 291 292 291
332 315 322 325 336 332 336 352 323 274 282 281 268 282 302 302 329 329 349 345 331 323 330 336 334 331 327 317 306 298 295 294 295 304 312 309 296 288 284 285 289 292 290 289
322 309 318 320 328 324 331 339 317 298 322 296 286 284 262 315 325 315 334 336 329 324 326 330 333 329 325 318 305 295 289 287 286 295 303 303 293 278 274 273 277 284 292 302
324 297 312 315 318 309 309 314 268 274 254 235 296 263 287 310 313 311 327 324 326 324 324 326 328 330 323 312 303 295 288 286 285 287 292 301 288 278 268 269 270 272 277 284
320 300 291 315 302 296 297 299 263 251 264 255 279 276 306 283 265 302 323 318 324 325 323 321 325 328 323 316 310 301 291 286 283 284 288 296 289 282 279 279 278 280 283 287
316 302 309 316 315 306 302 300 302 288 278 257 240 261 281 299 302 306 308 310 310 318 320 322 323 326 322 318 314 306 295 288 284 288 289 289 289 285 281 278 277 281 283 283
312 293 275 263 287 294 295 295 290 280 269 267 246 274 296 317 313 304 298 299 298 308 320 321 318 316 316 315 313 308 296 298 297 292 286 286 288 284 283 279 276 279 282 287
292 285 290 296 294 294 293 291 289 275 272 256 283 276 306 311 296 294 299 298 301 298 315 315 313 314 313 312 312 313 304 300 297 290 287 289 290 284 278 278 282 284 285 290
291 282 293 295 304 299 294 298 301 287 283 274 291 292 301 296 295 291 296 303 300 306 314 320 319 314 308 309 310 309 303 298 297 292 287 284 283 280 280 282 284 286 289 291
275 278 287 287 300 302 296 300 282 279 294 294 280 290 283 283 284 288 289 296 319 316 314 314 313 306 304 303 304 303 296 293 290 284 283 280 278 279 280 281 283 286 289 292
259 267 272 276 297 255 280 271 287 282 283 269 283 289 286 287 290 286 288 307 315 315 314 310 304 302 301 300 298 293 292 291 286 280 277 278 280 282 283 284 287 290 294 295
241 245 246 248 260 279 292 283 276 275 283 286 286 286 283 305 291 297 313 311 310 308 307 306 302 299 295 292 290 290 288 286 283 280 280 281 284 286 288 290 293 297 297 296
231 239 242 238 246 253 283 285 287 287 287 287 285 266 301 309 312 312 309 309 306 307 308 307 303 300 295 291 287 286 286 285 285 286 288 289 290 292 294 298 301 299 298 299
237 234 236 243 245 266 273 282 290 278 290 304 310 305 309 314 310 310 310 312 315 314 312 308 303 298 293 290 288 287 288 290 290 291 292 293 294 297 302 302 299 299 301 303
253 236 234 239 241 264 279 285 288 296 288 307 314 312 318 315 313 312 312 315 315 314 312 308 304 300 295 291 291 292 293 293 294 293 293 297 302 301 299 300 301 301 302 303
245 253 263 254 267 282 290 285 300 297 309 309 304 318 316 313 314 315 319 317 315 311 309 307 305 301 299 296 295 295 296 295 293 299 306 302 300 301 301 302 302 303 305 309
266 261 263 259 270 292 280 305 300 305 307 295 312 313 314 316 319 319 317 314 311 309 308 306 305 303 300 298 298 297 296 302 306 300 299 300 301 302 302 304 306 309 310 311
276 276 286 285 288 287 300 298 308 308 312 311 310 311 313 316 317 316 314 311 309 307 304 304 304 302 300 299 298 303 303 299 299 300 301 302 303 304 306 307 308 309 312 314
280 295 291 300 294 296 297 303 299 302 308 307 311 313 315 317 317 316 313 311 309 304 302 303 303 301 300 304 302 300 300 301 302 302 304 304 304 305 307 309 312 314 313 314